Regional Weather Roundup
Issued by NWS Cleveland, OH

Home | Current Version | Previous Version | Graphics & Text | Print | Product List | Glossary On
Versions: 1 2 3 4 5 6 7 8 9 10 11 12 13 14 15 16 17 18 19 20 21 22 23 24 25 26 27 28 29 30 31 32 33 34 35 36 37 38 39 40 41 42 43 44 45 46 47 48 49 50
000
ASUS41 KCLE 160310
RWRCLE
OHIO REGIONAL WEATHER ROUNDUP
NATIONAL WEATHER SERVICE CLEVELAND, OH
1100 PM EDT TUE APR 15 2014

NOTE: "FAIR" INDICATES FEW OR NO CLOUDS BELOW 12,000 FEET WITH NO
SIGNIFICANT WEATHER AND/OR OBSTRUCTIONS TO VISIBILITY.

OHZ001>008-015>018-024>027-034-035-043-044-160400-
   NORTHWEST OHIO

CITY           SKY/WX    TMP DP  RH WIND       PRES   REMARKS
DEFIANCE       CLEAR     27  14  58 CALM      30.25R
FINDLAY        CLEAR     28  15  58 NW9       30.24R WCI  19
TOLEDO EXPRESS CLEAR     29   9  43 W7        30.24R WCI  22
TOLEDO EXEC    CLEAR     29  14  53 NW9       30.25R WCI  20
LIMA           CLEAR     30  15  53 NW8       30.24R WCI  22
$$

OHZ009>014-019>023-028>033-038-089-160400-
   NORTHEAST OHIO

CITY           SKY/WX    TMP DP  RH WIND       PRES   REMARKS
CLE-HOPKINS    MOCLDY    32  18  56 NW9       30.23R WCI  24
CLE-LAKEFRONT  PTCLDY    32  18  56 NW21      30.20R WCI  20
CUY CO. ARPT   MOCLDY    32  19  59 NW14      30.20R WCI  22
LORAIN-ELYRIA  CLOUDY    33  20  58 N10       30.21R WCI  25
ASHTABULA      MOCLDY    27  18  69 N8        30.19R WCI  19
AKRON-CANTON   PTCLDY    27  21  78 NW9       30.19R WCI  18
WOOSTER        PTCLDY    26  19  74 W3        30.20R
MANSFIELD      CLEAR     27  18  69 W3        30.20R
YOUNGSTOWN     MOCLDY    26  20  77 NW7       30.17R WCI  18
$$

OHZ042-051>053-060>062-070>072-077>081-160400-
  SOUTHWEST OHIO

CITY           SKY/WX    TMP DP  RH WIND       PRES   REMARKS
CINC-COVINGTON CLEAR     31  19  61 N6        30.24R WCI  25
CINC-LUNKEN    CLEAR     32  19  58 N3        30.28R
HAMILTON       CLEAR     32  20  61 N3        30.27R
DAYTON         CLEAR     29  17  61 N6        30.26R WCI  23
WRIGHT-PAT AFB CLEAR     31  15  51 NW7       30.25R WCI  24
DAYTON GENERAL CLEAR     30  16  56 N5        30.24R WCI  25
WILMINGTON     CLEAR     29  16  58 N5        30.24R WCI  24
$$

OHZ036-037-039>041-045>050-054>059-063>069-073>076-082>088-160400-
  CENTRAL AND SOUTHEAST OHIO

CITY           SKY/WX    TMP DP  RH WIND       PRES   REMARKS
COLUMBUS       CLEAR     32  15  49 NW8       30.24R WCI  25
OSU AIRPORT    CLEAR     27  16  63 NW7       30.24R WCI  19
BOLTON FIELD   CLEAR     29  18  63 MISG      30.24R
RICKENBACK AFB PTCLDY    33  13  44 NW8       30.24R WCI  25
NEWARK         FAIR      29  18  63 W5        30.23R WCI  24
MARION         CLEAR     28  16  60 NW8       30.23R WCI  20
LANCASTER      CLEAR     30  16  56 NW6       30.24R WCI  24
ZANESVILLE     FAIR      29  18  63 CALM      30.22R
NEW PHILLY     CLEAR     29  18  63 W5        30.22R WCI  24
$$



USA.gov is the U.S. government's official web portal to all federal, state and local government web resources and services.